TVF29D LFLL-LFML

Flight info

Callsign TVF29D
Flight time 0h 30m
Altitude 18000
Route ROMAM A6 MTL
Aircraft B738/M-SDE2E3FGHIRWXY/LB1

Departure

Time 2026-05-05 19:17
Airport Lyon Saint-Exupéry Airport (LFLL)

Arrival

Time 2026-05-05 19:47
Airport Marseille Provence Airport (LFML)
Time Latitude Longitude Altitude Speed Heading
2026-05-05 18:49 45.71514 5.08176 801 ft 0 kts 15°
2026-05-05 19:05 45.71502 5.08171 801 ft 3 kts 14°
2026-05-05 19:06 45.71482 5.08164 801 ft 3 kts 17°
2026-05-05 19:06 45.71464 5.08155 801 ft 3 kts 30°
2026-05-05 19:06 45.71450 5.08139 801 ft 3 kts 61°
2026-05-05 19:06 45.71444 5.08113 801 ft 3 kts 93°
2026-05-05 19:07 45.71445 5.08097 801 ft 2 kts 104°
2026-05-05 19:10 45.71445 5.08098 773 ft 1 kts 104°
2026-05-05 19:10 45.71438 5.08136 801 ft 5 kts 105°
2026-05-05 19:10 45.71426 5.08200 801 ft 8 kts 104°
2026-05-05 19:10 45.71411 5.08289 802 ft 11 kts 103°
2026-05-05 19:11 45.71412 5.08404 804 ft 12 kts 84°
2026-05-05 19:11 45.71440 5.08513 806 ft 13 kts 32°
2026-05-05 19:11 45.71549 5.08511 802 ft 18 kts 355°
2026-05-05 19:11 45.71684 5.08494 801 ft 21 kts 355°
2026-05-05 19:12 45.71836 5.08476 801 ft 23 kts 355°
2026-05-05 19:12 45.71999 5.08457 801 ft 23 kts 355°
2026-05-05 19:12 45.72157 5.08438 801 ft 22 kts 355°
2026-05-05 19:12 45.72310 5.08420 798 ft 22 kts 355°
2026-05-05 19:13 45.72459 5.08402 795 ft 21 kts 355°
2026-05-05 19:13 45.72604 5.08384 793 ft 21 kts 354°
2026-05-05 19:13 45.72753 5.08364 790 ft 21 kts 355°
2026-05-05 19:13 45.72897 5.08347 789 ft 21 kts 355°
2026-05-05 19:14 45.73038 5.08331 786 ft 20 kts 355°
2026-05-05 19:14 45.73175 5.08314 784 ft 19 kts 355°
2026-05-05 19:14 45.73307 5.08298 782 ft 19 kts 355°
2026-05-05 19:14 45.73440 5.08281 779 ft 19 kts 354°
2026-05-05 19:15 45.73567 5.08265 779 ft 18 kts 355°
2026-05-05 19:15 45.73690 5.08265 776 ft 18 kts 24°
2026-05-05 19:15 45.73724 5.08417 776 ft 17 kts 102°
2026-05-05 19:15 45.73696 5.08579 775 ft 16 kts 104°
2026-05-05 19:16 45.73647 5.08714 777 ft 16 kts 158°
2026-05-05 19:16 45.73514 5.08737 781 ft 38 kts 175°
2026-05-05 19:16 45.72970 5.08804 790 ft 117 kts 175°
2026-05-05 19:16 45.71928 5.08932 895 ft 174 kts 175°
2026-05-05 19:17 45.70734 5.09070 1916 ft 168 kts 176°
2026-05-05 19:17 45.69588 5.09204 2959 ft 167 kts 177°
2026-05-05 19:17 45.68362 5.09356 3565 ft 189 kts 178°
2026-05-05 19:17 45.67013 5.09552 4229 ft 197 kts 176°
2026-05-05 19:18 45.65589 5.09759 4650 ft 218 kts 179°
2026-05-05 19:18 45.64001 5.09933 5049 ft 235 kts 179°
2026-05-05 19:18 45.62330 5.10095 5702 ft 248 kts 178°
2026-05-05 19:18 45.60556 5.10300 6420 ft 260 kts 178°
2026-05-05 19:19 45.58707 5.10525 7164 ft 271 kts 179°
2026-05-05 19:19 45.56872 5.10241 8247 ft 264 kts 194°
2026-05-05 19:19 45.55071 5.09631 9148 ft 270 kts 195°
2026-05-05 19:19 45.53244 5.08987 10092 ft 271 kts 195°
2026-05-05 19:20 45.51371 5.08332 10720 ft 285 kts 195°
2026-05-05 19:20 45.49362 5.07641 10992 ft 310 kts 194°
2026-05-05 19:20 45.47180 5.06906 11309 ft 331 kts 194°
2026-05-05 19:20 45.44897 5.06152 11920 ft 342 kts 194°
2026-05-05 19:21 45.42543 5.05385 12614 ft 350 kts 194°
2026-05-05 19:21 45.40159 5.04617 13346 ft 356 kts 194°
2026-05-05 19:21 45.37750 5.03848 13870 ft 354 kts 194°
2026-05-05 19:21 45.35350 5.03086 13900 ft 352 kts 194°
2026-05-05 19:22 45.32973 5.02331 13904 ft 348 kts 194°
2026-05-05 19:22 45.30612 5.01582 13913 ft 348 kts 194°
2026-05-05 19:22 45.28245 5.00830 13912 ft 349 kts 194°
2026-05-05 19:22 45.25872 5.00076 13912 ft 350 kts 194°
2026-05-05 19:23 45.23535 4.99334 13902 ft 351 kts 194°
2026-05-05 19:23 45.21153 4.98579 13904 ft 351 kts 194°
2026-05-05 19:23 45.18769 4.97823 13900 ft 351 kts 194°
2026-05-05 19:23 45.16386 4.97069 13900 ft 351 kts 194°
2026-05-05 19:24 45.14005 4.96316 13888 ft 350 kts 194°
2026-05-05 19:24 45.11660 4.95579 13891 ft 350 kts 194°
2026-05-05 19:24 45.09250 4.94817 13890 ft 350 kts 194°
2026-05-05 19:24 45.06874 4.94065 13887 ft 350 kts 194°
2026-05-05 19:25 45.04533 4.93326 13900 ft 349 kts 194°
2026-05-05 19:25 45.02162 4.92578 13894 ft 349 kts 194°
2026-05-05 19:25 44.99761 4.91822 13914 ft 349 kts 194°
2026-05-05 19:25 44.97424 4.91087 13916 ft 349 kts 194°
2026-05-05 19:26 44.95055 4.90342 13911 ft 349 kts 194°
2026-05-05 19:26 44.92684 4.89597 13907 ft 349 kts 193°
2026-05-05 19:26 44.90317 4.88855 13915 ft 349 kts 194°
2026-05-05 19:26 44.87946 4.88112 13916 ft 349 kts 193°
2026-05-05 19:27 44.85578 4.87370 13908 ft 348 kts 193°
2026-05-05 19:27 44.83213 4.86630 13912 ft 348 kts 193°
2026-05-05 19:27 44.80849 4.85890 13913 ft 348 kts 193°
2026-05-05 19:27 44.78488 4.85152 13908 ft 348 kts 193°
2026-05-05 19:28 44.76126 4.84415 13910 ft 347 kts 193°
2026-05-05 19:28 44.73767 4.83679 13906 ft 347 kts 193°
2026-05-05 19:28 44.71411 4.82945 13913 ft 347 kts 193°
2026-05-05 19:28 44.69049 4.82217 13903 ft 347 kts 192°
2026-05-05 19:29 44.66641 4.81960 13900 ft 346 kts 179°
2026-05-05 19:29 44.64271 4.82252 13907 ft 341 kts 176°
2026-05-05 19:29 44.61838 4.82599 13923 ft 362 kts 176°
2026-05-05 19:29 44.59271 4.82965 13906 ft 376 kts 176°
2026-05-05 19:30 44.56666 4.83335 13898 ft 377 kts 176°
2026-05-05 19:30 44.54058 4.83700 13890 ft 376 kts 176°
2026-05-05 19:30 44.51453 4.84061 13866 ft 376 kts 176°
2026-05-05 19:30 44.48850 4.84416 13779 ft 377 kts 176°
2026-05-05 19:31 44.46240 4.84771 13507 ft 376 kts 176°
2026-05-05 19:31 44.43650 4.85121 13254 ft 373 kts 176°
2026-05-05 19:31 44.41076 4.85468 13015 ft 371 kts 176°
2026-05-05 19:31 44.38511 4.85813 12778 ft 369 kts 176°
2026-05-05 19:32 44.35958 4.86156 12545 ft 368 kts 176°
2026-05-05 19:32 44.33414 4.86497 12308 ft 367 kts 176°
2026-05-05 19:32 44.30871 4.86838 12075 ft 366 kts 176°
2026-05-05 19:32 44.28337 4.87177 11855 ft 365 kts 176°
2026-05-05 19:33 44.25809 4.87515 11630 ft 364 kts 176°
2026-05-05 19:33 44.23289 4.87852 11404 ft 363 kts 176°
2026-05-05 19:33 44.20777 4.88187 11181 ft 362 kts 176°
2026-05-05 19:33 44.18274 4.88521 10955 ft 361 kts 176°
2026-05-05 19:34 44.15782 4.88853 10731 ft 359 kts 176°
2026-05-05 19:34 44.13312 4.89183 10505 ft 352 kts 176°
2026-05-05 19:34 44.10913 4.89503 10277 ft 340 kts 176°
2026-05-05 19:35 44.06412 4.90105 9947 ft 313 kts 176°
2026-05-05 19:35 44.04292 4.90387 9855 ft 299 kts 176°
2026-05-05 19:35 44.02262 4.90658 9776 ft 287 kts 176°
2026-05-05 19:35 44.00316 4.90916 9692 ft 275 kts 176°
2026-05-05 19:36 43.98439 4.91164 9501 ft 268 kts 177°
2026-05-05 19:36 43.96584 4.91408 9181 ft 267 kts 176°
2026-05-05 19:36 43.94762 4.91648 9030 ft 259 kts 176°
2026-05-05 19:36 43.92988 4.91882 8819 ft 254 kts 176°
2026-05-05 19:37 43.91226 4.92114 8489 ft 255 kts 176°
2026-05-05 19:37 43.89466 4.92346 8191 ft 253 kts 176°
2026-05-05 19:37 43.87714 4.92576 7894 ft 252 kts 176°
2026-05-05 19:37 43.85967 4.92806 7597 ft 252 kts 176°
2026-05-05 19:38 43.84223 4.93035 7292 ft 252 kts 176°
2026-05-05 19:38 43.82482 4.93265 6999 ft 251 kts 176°
2026-05-05 19:38 43.80749 4.93493 6720 ft 250 kts 175°
2026-05-05 19:38 43.79018 4.93720 6427 ft 250 kts 175°
2026-05-05 19:39 43.77293 4.93947 6159 ft 248 kts 175°
2026-05-05 19:39 43.75574 4.94173 5829 ft 248 kts 175°
2026-05-05 19:39 43.73853 4.94399 5542 ft 248 kts 175°
2026-05-05 19:39 43.72141 4.94624 5260 ft 247 kts 175°
2026-05-05 19:40 43.70419 4.94851 4903 ft 250 kts 175°
2026-05-05 19:40 43.68692 4.95077 4640 ft 248 kts 175°
2026-05-05 19:40 43.66984 4.95295 4432 ft 244 kts 175°
2026-05-05 19:40 43.65299 4.95499 4121 ft 244 kts 175°
2026-05-05 19:41 43.63612 4.95736 4041 ft 240 kts 174°
2026-05-05 19:41 43.61939 4.95962 3910 ft 245 kts 174°
2026-05-05 19:41 43.60363 4.96686 4113 ft 234 kts 146°
2026-05-05 19:41 43.59287 4.98329 4030 ft 229 kts 123°
2026-05-05 19:42 43.58428 5.00154 3808 ft 228 kts 126°
2026-05-05 19:42 43.57489 5.01785 3807 ft 210 kts 133°
2026-05-05 19:42 43.56476 5.03231 3448 ft 204 kts 136°
2026-05-05 19:42 43.55498 5.04573 3185 ft 194 kts 136°
2026-05-05 19:43 43.54577 5.05851 2959 ft 182 kts 136°
2026-05-05 19:43 43.53705 5.07050 2723 ft 171 kts 136°
2026-05-05 19:43 43.52899 5.08163 2469 ft 160 kts 135°
2026-05-05 19:43 43.52164 5.09198 2359 ft 146 kts 134°
2026-05-05 19:44 43.51455 5.10199 2106 ft 145 kts 137°
2026-05-05 19:44 43.50983 5.10827 1968 ft 140 kts 137°
2026-05-05 19:44 43.50295 5.11750 1749 ft 138 kts 135°
2026-05-05 19:44 43.49609 5.12715 1590 ft 145 kts 135°
2026-05-05 19:45 43.48911 5.13723 1418 ft 145 kts 131°
2026-05-05 19:45 43.48266 5.14784 1163 ft 145 kts 130°
2026-05-05 19:45 43.47634 5.15851 906 ft 143 kts 131°
2026-05-05 19:45 43.46942 5.16828 655 ft 140 kts 136°
2026-05-05 19:46 43.46269 5.17799 359 ft 138 kts 135°
2026-05-05 19:46 43.45617 5.18731 228 ft 135 kts 136°
2026-05-05 19:46 43.44975 5.19652 103 ft 133 kts 136°
2026-05-05 19:46 43.44345 5.20550 36 ft 122 kts 136°
2026-05-05 19:47 43.43830 5.21278 36 ft 89 kts 134°
2026-05-05 19:47 43.43496 5.21755 34 ft 60 kts 134°
2026-05-05 19:47 43.43334 5.22055 36 ft 30 kts 96°
2026-05-05 19:47 43.43348 5.22244 36 ft 11 kts 57°
2026-05-05 19:48 43.43413 5.22280 36 ft 11 kts 354°
2026-05-05 19:48 43.43469 5.22246 34 ft 4 kts 329°
2026-05-05 19:48 43.43495 5.22225 36 ft 4 kts 329°
2026-05-05 19:48 43.43520 5.22205 36 ft 4 kts 330°
2026-05-05 19:49 43.43545 5.22185 36 ft 5 kts 330°
2026-05-05 19:49 43.43581 5.22158 36 ft 7 kts 330°
2026-05-05 19:49 43.43635 5.22115 36 ft 11 kts 329°
2026-05-05 19:49 43.43727 5.22040 36 ft 19 kts 332°
2026-05-05 19:50 43.43838 5.22104 36 ft 19 kts 45°
2026-05-05 19:50 43.43854 5.22200 35 ft 8 kts 120°
2026-05-05 19:50 43.43853 5.22259 36 ft 6 kts 73°
2026-05-05 19:50 43.43862 5.22303 36 ft 1 kts 74°
2026-05-05 19:51 43.43862 5.22305 36 ft 0 kts 74°